Regional Weather Roundup
Issued by NWS

Home | Current Version | Previous Version | Graphics & Text | Print | Product List | Glossary Off
Versions: 1 2 3 4 5 6 7 8 9 10 11 12 13 14 15 16 17 18 19 20 21 22 23 24 25 26 27 28 29 30 31 32 33 34 35 36 37 38 39 40 41 42 43 44 45 46 47 48 49 50

000
ASUS43 KTOP 300310
RWRKS

STATE WEATHER ROUNDUP
NATIONAL WEATHER SERVICE DODGE CITY KS
 FOR NATIONAL WEATHER SERVICE GOODLAND KS
1000 PM CDT WED JUL 29 2015

NOTE:  "FAIR" INDICATES FEW OR NO CLOUDS BELOW 12,000 FEET WITH NO
SIGNIFICANT WEATHER AND/OR OBSTRUCTIONS TO VISIBILITY.

KSZ001>006-013>018-027>032-041>047-300400-
...NORTHWEST KANSAS...

CITY           SKY/WX    TMP DP  RH WIND       PRES   REMARKS
GOODLAND       CLEAR     63  51  65 SE6       30.27R
HAYS           CLEAR     72  55  56 E9        30.19S
HILL CITY      CLEAR     70  58  65 E3        30.21R
RUSSELL        CLEAR     70  60  70 E6        30.18R
$$

KSZ061>065-074>080-084>089-300400-
...SOUTHWEST KANSAS...

CITY           SKY/WX    TMP DP  RH WIND       PRES   REMARKS
DODGE CITY     CLOUDY    72  66  81 VRB3      30.21R
ELKHART          N/A     72  64  76 NE6         N/A
GARDEN CITY    CLEAR     70  65  84 E6        30.22R
GREAT BEND     PTCLDY    75  66  73 E6        30.18S
LIBERAL        MOCLDY    77  64  65 E10       30.20S
PRATT          MOCLDY    73  66  78 CALM      30.19R
$$

KSZ066>073-081>083-090>101-300400-
...SOUTHEAST KANSAS...

CITY           SKY/WX    TMP DP  RH WIND       PRES   REMARKS
CHANUTE        CLOUDY    79  68  69 NE14      30.11S
COFFEYVILLE    MOCLDY    79  71  76 NE7       30.08R
HUTCHINSON     PTCLDY    74  69  85 NE6       30.16R
MEDICINE LODGE   N/A     75  70  84 NE9       30.14R
PARSONS        CLOUDY    81  69  67 VRB5      30.11R
WICHITA INTL   PTCLDY    77  70  79 NE8       30.13R
WICHITA JABRA  MOCLDY    74  70  87 NE7       30.14S
WICHITA MCCONL MOCLDY    77  68  73 E8        30.14R
WINFIELD       PTCLDY    76  71  85 NE9       30.13R
$$

KSZ007>012-019>026-033>040-048>060-102>105-300400-
...NORTHEAST KANSAS...

CITY           SKY/WX    TMP DP  RH WIND       PRES   REMARKS
CONCORDIA      CLEAR     70  63  78 SE3       30.18R
EMPORIA        PTCLDY    75  68  78 NE6       30.14S
LAWRENCE       CLEAR     69  67  93 N5        30.15R
MANHATTAN      CLEAR     72  65  78 N5        30.15S
OLATHE IND     PTCLDY    74  67  78 NE6       30.16R
OLATHE EXE     PTCLDY    74  66  76 NE5       30.15R
SALINA         CLEAR     78  65  63 NE6       30.17R
TOPEKA BILLARD CLEAR     74  69  85 CALM      30.16R
TOPEKA FORBES  CLEAR     75  68  78 N7        30.16R
$$



USA.gov is the U.S. government's official web portal to all federal, state and local government web resources and services.